TimeMDT,TemperatureF,Dew PointF,Humidity,Sea Level PressureIn,VisibilityMPH,Wind Direction,Wind SpeedMPH,Gust SpeedMPH,PrecipitationIn,Events,Conditions,WindDirDegrees,DateUTC
12:35 AM,37.4,32.0,81,29.84,10.0,SSW,6.9,-,N/A,,Clear,210,2013-09-28 06:35:00
12:55 AM,37.4,33.8,87,29.84,10.0,SSE,6.9,-,N/A,,Clear,160,2013-09-28 06:55:00
1:15 AM,37.4,33.8,87,29.84,10.0,South,8.1,-,N/A,,Clear,190,2013-09-28 07:15:00
1:35 AM,35.6,30.2,81,29.83,10.0,South,8.1,-,N/A,,Clear,180,2013-09-28 07:35:00
1:55 AM,33.8,32.0,93,29.83,10.0,SSE,6.9,-,N/A,,Partly Cloudy,160,2013-09-28 07:55:00
2:15 AM,35.6,33.8,93,29.83,10.0,South,8.1,-,N/A,,Scattered Clouds,170,2013-09-28 08:15:00
2:35 AM,35.6,33.8,93,29.83,10.0,South,10.4,-,N/A,,Partly Cloudy,180,2013-09-28 08:35:00
3:15 AM,35.6,33.8,93,29.83,10.0,South,11.5,-,N/A,,Clear,190,2013-09-28 09:15:00
3:35 AM,35.6,33.8,93,29.82,10.0,South,11.5,-,N/A,,Clear,190,2013-09-28 09:35:00
3:55 AM,37.4,33.8,87,29.83,10.0,South,10.4,-,N/A,,Clear,190,2013-09-28 09:55:00
4:15 AM,35.6,33.8,93,29.83,10.0,South,11.5,-,N/A,,Clear,190,2013-09-28 10:15:00
4:35 AM,35.6,33.8,93,29.83,10.0,South,9.2,-,N/A,,Clear,190,2013-09-28 10:35:00
4:55 AM,35.6,32.0,87,29.83,10.0,South,9.2,-,N/A,,Clear,190,2013-09-28 10:55:00
5:15 AM,33.8,32.0,93,29.83,10.0,South,8.1,-,N/A,,Clear,190,2013-09-28 11:15:00
5:35 AM,33.8,30.2,87,29.82,10.0,South,9.2,-,N/A,,Clear,180,2013-09-28 11:35:00
5:55 AM,33.8,30.2,87,29.82,10.0,South,8.1,-,N/A,,Clear,180,2013-09-28 11:55:00
6:15 AM,33.8,30.2,87,29.82,10.0,SSW,5.8,-,N/A,,Clear,200,2013-09-28 12:15:00
6:35 AM,33.8,32.0,93,29.81,10.0,South,9.2,-,N/A,,Mostly Cloudy,190,2013-09-28 12:35:00
6:55 AM,35.6,32.0,87,29.82,10.0,SSW,9.2,-,N/A,,Overcast,200,2013-09-28 12:55:00
7:15 AM,35.6,33.8,93,29.82,10.0,SSW,6.9,-,N/A,,Overcast,200,2013-09-28 13:15:00
7:35 AM,37.4,33.8,87,29.82,10.0,South,5.8,-,N/A,,Overcast,190,2013-09-28 13:35:00
7:55 AM,37.4,35.6,93,29.82,10.0,SSE,5.8,-,N/A,,Overcast,160,2013-09-28 13:55:00
8:15 AM,39.2,35.6,87,29.82,10.0,South,3.5,-,N/A,,Overcast,170,2013-09-28 14:15:00
8:35 AM,39.2,35.6,87,29.82,10.0,SSE,8.1,-,N/A,,Overcast,150,2013-09-28 14:35:00
8:55 AM,41.0,35.6,81,29.83,10.0,SSE,4.6,-,N/A,,Overcast,150,2013-09-28 14:55:00
9:15 AM,44.6,39.2,81,29.83,10.0,SSW,4.6,-,N/A,,Mostly Cloudy,200,2013-09-28 15:15:00
9:35 AM,48.2,37.4,66,29.83,10.0,SW,6.9,-,N/A,,Mostly Cloudy,230,2013-09-28 15:35:00
9:55 AM,51.8,37.4,58,29.83,10.0,WSW,12.7,-,N/A,,Overcast,240,2013-09-28 15:55:00
10:15 AM,53.6,37.4,54,29.82,10.0,West,13.8,18.4,N/A,,Overcast,260,2013-09-28 16:15:00
10:35 AM,53.6,37.4,54,29.82,10.0,WSW,11.5,17.3,N/A,,Mostly Cloudy,240,2013-09-28 16:35:00
10:55 AM,57.2,37.4,48,29.81,10.0,West,12.7,19.6,N/A,,Partly Cloudy,260,2013-09-28 16:55:00
11:15 AM,60.8,35.6,39,29.81,10.0,West,18.4,-,N/A,,Clear,270,2013-09-28 17:15:00
11:35 AM,60.8,33.8,36,29.81,10.0,West,19.6,24.2,N/A,,Clear,280,2013-09-28 17:35:00
11:55 AM,60.8,33.8,36,29.80,10.0,West,18.4,27.6,N/A,,Clear,270,2013-09-28 17:55:00
12:15 PM,62.6,33.8,34,29.80,10.0,West,20.7,27.6,N/A,,Clear,270,2013-09-28 18:15:00
12:35 PM,62.6,32.0,32,29.80,10.0,West,26.5,36.8,N/A,,Partly Cloudy,280,2013-09-28 18:35:00
12:55 PM,62.6,33.8,34,29.80,10.0,West,19.6,31.1,N/A,,Clear,280,2013-09-28 18:55:00
1:15 PM,64.4,33.8,32,29.79,10.0,West,18.4,29.9,N/A,,Clear,260,2013-09-28 19:15:00
1:35 PM,64.4,33.8,32,29.79,10.0,West,23.0,28.8,N/A,,Partly Cloudy,280,2013-09-28 19:35:00
1:55 PM,64.4,33.8,32,29.79,10.0,West,19.6,31.1,N/A,,Partly Cloudy,260,2013-09-28 19:55:00
2:15 PM,64.4,33.8,32,29.78,10.0,West,21.9,28.8,N/A,,Scattered Clouds,270,2013-09-28 20:15:00
2:36 PM,64.4,33.8,32,29.78,10.0,West,19.6,27.6,N/A,,Scattered Clouds,270,2013-09-28 20:36:00
2:55 PM,62.6,32.0,32,29.78,10.0,West,13.8,24.2,N/A,,Scattered Clouds,270,2013-09-28 20:55:00
3:15 PM,66.2,32.0,28,29.78,10.0,West,13.8,29.9,N/A,,Mostly Cloudy,260,2013-09-28 21:15:00
3:35 PM,64.4,32.0,30,29.78,10.0,West,19.6,-,N/A,,Mostly Cloudy,270,2013-09-28 21:35:00
3:55 PM,62.6,30.2,30,29.78,10.0,West,16.1,21.9,N/A,,Scattered Clouds,270,2013-09-28 21:55:00
4:15 PM,66.2,32.0,28,29.78,10.0,West,16.1,31.1,N/A,,Scattered Clouds,260,2013-09-28 22:15:00
4:55 PM,64.4,33.8,32,29.78,10.0,West,18.4,25.3,N/A,,Clear,270,2013-09-28 22:55:00
5:15 PM,64.4,33.8,32,29.78,10.0,West,12.7,21.9,N/A,,Clear,270,2013-09-28 23:15:00
5:35 PM,64.4,33.8,32,29.78,10.0,West,13.8,-,N/A,,Clear,280,2013-09-28 23:35:00
5:55 PM,62.6,32.0,32,29.79,10.0,West,10.4,-,N/A,,Clear,270,2013-09-28 23:55:00
6:15 PM,60.8,33.8,36,29.79,10.0,West,5.8,-,N/A,,Partly Cloudy,260,2013-09-29 00:15:00
6:35 PM,59.0,33.8,39,29.78,10.0,West,4.6,-,N/A,,Mostly Cloudy,260,2013-09-29 00:35:00
6:55 PM,57.2,33.8,41,29.78,10.0,SW,5.8,-,N/A,,Overcast,230,2013-09-29 00:55:00
7:15 PM,55.4,33.8,44,29.78,10.0,SW,5.8,-,N/A,,Overcast,230,2013-09-29 01:15:00
7:55 PM,53.6,33.8,47,29.78,10.0,SW,3.5,-,N/A,,Partly Cloudy,230,2013-09-29 01:55:00
8:15 PM,53.6,33.8,47,29.78,10.0,South,4.6,-,N/A,,Clear,190,2013-09-29 02:15:00
8:35 PM,51.8,33.8,50,29.78,10.0,South,6.9,-,N/A,,Clear,180,2013-09-29 02:35:00
8:55 PM,51.8,33.8,50,29.78,10.0,SW,5.8,-,N/A,,Clear,220,2013-09-29 02:55:00
9:15 PM,51.8,35.6,54,29.78,10.0,SW,8.1,-,N/A,,Clear,230,2013-09-29 03:15:00
9:35 PM,48.2,33.8,58,29.78,10.0,SW,6.9,-,N/A,,Clear,230,2013-09-29 03:35:00
9:55 PM,50.0,33.8,54,29.78,10.0,SSW,5.8,-,N/A,,Clear,210,2013-09-29 03:55:00
10:15 PM,50.0,33.8,54,29.77,10.0,SSW,8.1,-,N/A,,Clear,210,2013-09-29 04:15:00
10:55 PM,48.2,35.6,62,29.76,10.0,SSW,8.1,-,N/A,,Clear,210,2013-09-29 04:55:00
11:15 PM,46.4,35.6,66,29.76,10.0,SSW,6.9,-,N/A,,Clear,210,2013-09-29 05:15:00
11:35 PM,48.2,37.4,66,29.75,10.0,SSW,9.2,-,N/A,,Clear,210,2013-09-29 05:35:00
11:55 PM,50.0,37.4,62,29.75,10.0,SSW,9.2,-,N/A,,Clear,210,2013-09-29 05:55:00